Huntsville, AL

11:39 AM CDT on April 26, 2018 (GMT -0500)
Huntsville International

Weather History for KHSV - January, 2013

Change the Weather History Date:

Tuesday, January 15, 2013

  Actual Average Record
Temperature  
Mean Temperature 39 °F 41 °F  
Max Temperature 41 °F 51 °F 75 °F (1947)
Min Temperature 36 °F 32 °F 5 °F (1927)
Degree Days  
Heating Degree Days 26 24  
Month to date heating degree days 269 360  
Since 1 July heating degree days 1377 1541  
Cooling Degree Days 0 0  
Month to date cooling degree days 6 0  
Year to date cooling degree days 6 0  
Moisture  
Dew Point 36 °F    
Average Humidity 96    
Maximum Humidity 100    
Minimum Humidity 92    
Precipitation  
Precipitation 2.02 in 0.16 in 2.27 in (1954)
Month to date precipitation 6.48 2.39  
Year to date precipitation 6.48 2.39  
Snow  
Snow 0.00 in - - ()
Month to date snowfall 0.0  
Since 1 July snowfall T  
Snow Depth 0.00 in    
Sea Level Pressure  
Sea Level Pressure 30.06 in    
Wind  
Wind Speed 7 mph (NNE)    
Max Wind Speed 18 mph    
Max Gust Speed 22 mph    
Visibility 4 miles    
Events Rain    
T = Trace of Precipitation, MM = Missing Value Source: NWS Daily Summary

Daily Weather History Graph

Daily Weather History Graph

Search for Another Location

Airport or City:

Astronomy

Jan. 15, 2013 Rise Set
Actual Time 6:53 AM CST 4:59 PM CST
Civil Twilight 6:26 AM CST 5:27 PM CST
Nautical Twilight 5:55 AM CST 5:58 PM CST
Astronomical Twilight 5:25 AM CST 6:28 PM CST
Moon 9:11 AM CST (1/15) 9:34 PM CST (1/15)
Length of Visible Light 11h 00m
Length of Day
10h 06m
Waxing Crescent, 19% of the Moon is Illuminated
Jan 15
Waxing Crescent
Jan 18
First Quarter
Jan 26
Full
Feb 3
Last Quarter
Feb 10
New

Hourly Weather History & Observations

Time (CST) Temp. Windchill Dew Point Humidity Pressure Visibility Wind Dir Wind Speed Gust Speed Precip Events Conditions
12:27 AM 35.6 °F 28.6 °F 33.8 °F 93% 30.15 in 5.0 mi NNE 9.2 mph - 0.03 in Rain Light Rain
12:53 AM 36.0 °F 28.5 °F 34.0 °F 93% 30.15 in 5.0 mi North 10.4 mph - 0.06 in Rain Light Rain
1:24 AM 35.6 °F 28.6 °F 35.6 °F 100% 30.14 in 6.0 mi North 9.2 mph - 0.02 in Rain Light Rain
1:53 AM 36.0 °F 30.3 °F 35.1 °F 97% 30.17 in 4.0 mi North 6.9 mph - 0.06 in Rain Light Rain
2:53 AM 36.0 °F 29.0 °F 34.0 °F 93% 30.17 in 5.0 mi North 9.2 mph - 0.09 in Rain Light Rain
3:53 AM 36.0 °F 29.0 °F 34.0 °F 93% 30.17 in 5.0 mi North 9.2 mph - 0.01 in Rain Light Rain
4:53 AM 36.0 °F 28.5 °F 33.1 °F 89% 30.18 in 10.0 mi North 10.4 mph - 0.01 in   Overcast
5:53 AM 36.0 °F 29.0 °F 34.0 °F 93% 30.18 in 9.0 mi NNE 9.2 mph - 0.00 in   Overcast
6:53 AM 36.0 °F 29.0 °F 34.0 °F 93% 30.18 in 6.0 mi North 9.2 mph - 0.00 in Rain Light Rain
7:20 AM 35.6 °F 31.7 °F 33.8 °F 93% 30.17 in 2.5 mi NE 4.6 mph - 0.04 in Rain Rain
7:53 AM 36.0 °F 30.3 °F 35.1 °F 97% 30.16 in 2.5 mi NNE 6.9 mph - 0.09 in Rain Light Rain
8:18 AM 37.4 °F 31.4 °F 35.6 °F 93% 30.14 in 2.5 mi NE 8.1 mph - 0.03 in Rain Heavy Rain
8:29 AM 37.4 °F 30.3 °F 35.6 °F 93% 30.16 in 3.0 mi North 10.4 mph - 0.05 in Rain Light Rain
8:53 AM 37.0 °F 30.4 °F 35.1 °F 93% 30.16 in 3.0 mi NE 9.2 mph - 0.10 in Rain Light Rain
9:20 AM 37.4 °F 30.8 °F 35.6 °F 93% 30.13 in 2.0 mi NE 9.2 mph - 0.02 in Rain Light Rain
9:31 AM 37.4 °F 30.3 °F 35.6 °F 93% 30.12 in 3.0 mi ENE 10.4 mph - 0.02 in Rain Light Rain
9:38 AM 37.4 °F 32.8 °F 35.6 °F 93% 30.14 in 3.0 mi NNE 5.8 mph - 0.02 in Rain Light Rain
9:46 AM 37.4 °F 32.1 °F 35.6 °F 93% 30.14 in 2.0 mi North 6.9 mph - 0.03 in Rain Rain
9:53 AM 37.0 °F 31.6 °F 36.0 °F 96% 30.15 in 2.0 mi NNE 6.9 mph - 0.07 in Rain Heavy Rain
10:29 AM 37.4 °F 32.1 °F 35.6 °F 93% 30.11 in 2.0 mi NNE 6.9 mph - 0.11 in Rain Rain
10:53 AM 37.9 °F 34.4 °F 37.0 °F 97% 30.11 in 6.0 mi North 4.6 mph - 0.12 in Rain Light Rain
11:08 AM 37.4 °F 32.1 °F 37.4 °F 100% 30.08 in 2.0 mi North 6.9 mph - 0.05 in Rain Heavy Rain
11:53 AM 39.0 °F 33.4 °F 37.9 °F 96% 30.05 in 1.5 mi ENE 8.1 mph - 0.16 in Rain Heavy Rain
12:09 PM 39.2 °F 33.6 °F 37.4 °F 93% 30.04 in 2.0 mi NNE 8.1 mph - 0.07 in Rain Rain
12:53 PM 39.0 °F 36.8 °F 37.9 °F 96% 30.05 in 2.0 mi North 3.5 mph - 0.19 in Rain Rain
1:43 PM 39.2 °F 31.6 °F 37.4 °F 93% 29.98 in 2.0 mi East 12.7 mph - 0.14 in Rain Rain
1:53 PM 39.9 °F 32.5 °F 37.9 °F 93% 29.97 in 2.0 mi East 12.7 mph - 0.16 in Rain Rain
2:06 PM 39.2 °F 33.6 °F 39.2 °F 100% 29.96 in 2.0 mi East 8.1 mph - 0.03 in Rain Rain
2:21 PM 39.2 °F 35.0 °F 39.2 °F 100% 29.97 in 2.0 mi East 5.8 mph - 0.06 in Rain Rain
2:53 PM 41.0 °F 39.0 °F 39.0 °F 93% 29.99 in 3.0 mi North 3.5 mph - 0.11 in Rain Rain
3:53 PM 37.9 °F 30.9 °F 36.0 °F 93% 30.06 in 3.0 mi North 10.4 mph - 0.07 in Rain Light Rain
4:53 PM 37.9 °F 34.4 °F 37.0 °F 97% 30.06 in 5.0 mi NNE 4.6 mph - 0.04 in Rain Light Rain
5:53 PM 37.9 °F 32.1 °F 36.0 °F 93% 30.06 in 10.0 mi North 8.1 mph - 0.05 in Rain Light Rain
6:53 PM 37.9 °F 33.5 °F 36.0 °F 93% 30.05 in 10.0 mi NNW 5.8 mph - 0.02 in Rain Light Rain
7:28 PM 37.4 °F 32.1 °F 35.6 °F 93% 30.03 in 2.0 mi North 6.9 mph - 0.11 in Rain Heavy Rain
7:51 PM 37.4 °F 32.1 °F 35.6 °F 93% 30.04 in 2.0 mi NNE 6.9 mph - 0.18 in Rain Rain
7:53 PM 37.0 °F 32.4 °F 36.0 °F 96% 30.05 in 2.0 mi North 5.8 mph - 0.19 in Rain Rain
8:09 PM 37.4 °F 32.1 °F 37.4 °F 100% 30.02 in 2.0 mi NE 6.9 mph - 0.09 in Rain Heavy Rain
8:24 PM 37.4 °F 32.8 °F 37.4 °F 100% 30.01 in 2.0 mi NE 5.8 mph - 0.13 in Rain Light Rain
8:32 PM 37.4 °F 33.8 °F 37.4 °F 100% 30.01 in 2.0 mi NNE 4.6 mph - 0.14 in Rain Light Rain
8:46 PM 37.4 °F 32.8 °F 37.4 °F 100% 29.99 in 2.0 mi NE 5.8 mph - 0.19 in Rain Heavy Rain
8:53 PM 37.9 °F 35.5 °F 37.0 °F 97% 30.01 in 2.0 mi NNE 3.5 mph - 0.21 in Rain Rain
9:00 PM 37.4 °F 34.9 °F 37.4 °F 100% 29.99 in 1.8 mi NE 3.5 mph - 0.04 in Rain Heavy Rain
9:09 PM 37.4 °F 32.1 °F 37.4 °F 100% 29.98 in 2.0 mi ENE 6.9 mph - 0.11 in Rain Rain
9:21 PM 37.4 °F 32.8 °F 37.4 °F 100% 29.98 in 2.0 mi NE 5.8 mph - 0.12 in Rain Light Rain
9:29 PM 37.4 °F 32.8 °F 37.4 °F 100% 29.97 in 7.0 mi NE 5.8 mph - 0.13 in Rain Light Rain
9:39 PM 37.4 °F 32.8 °F 37.4 °F 100% 29.98 in 7.0 mi NE 5.8 mph - 0.13 in Rain Light Rain
9:46 PM 37.4 °F 33.8 °F 37.4 °F 100% 29.98 in 7.0 mi NE 4.6 mph - 0.14 in Rain Light Rain
9:53 PM 39.0 °F 35.7 °F 37.9 °F 96% 29.99 in 9.0 mi North 4.6 mph - 0.14 in Rain Light Rain
10:00 PM 37.4 °F - 37.4 °F 100% 29.98 in 10.0 mi Calm Calm - 0.00 in Rain Light Rain
10:14 PM 39.2 °F - 37.4 °F 93% 29.98 in 8.0 mi Calm Calm - 0.00 in Rain Light Rain
10:32 PM 37.4 °F 33.8 °F 37.4 °F 100% 29.98 in 5.0 mi WNW 4.6 mph - 0.02 in Rain Rain
10:53 PM 37.9 °F 31.5 °F 37.0 °F 97% 30.00 in 6.0 mi WNW 9.2 mph - 0.04 in Rain Rain
11:02 PM 37.4 °F 32.1 °F 37.4 °F 100% 29.98 in 7.0 mi NW 6.9 mph - 0.01 in Rain Rain
11:53 PM 37.9 °F 34.4 °F 37.0 °F 97% 29.98 in 10.0 mi NNW 4.6 mph - 0.03 in Rain Light Rain